n
n

Club ULM Alpes Mans'Ailes

Base ULM de Piacé (72)

Météo:

Données PiouPiou :  ICI

METAR (Le Mans):

METAR de LFRM (émis le mardi 18 septembre 2018 14:00 UTC):
LFRM 181400Z AUTO 22010KT 190V250 9999 FEW040 SCT074 26/15 Q1016 NOSIG

Coordonées GPS :

Lattitude : 48° 16' 16" Nord
Longitude : 00° 06' 15" Est
Altitude : 305 ft (93 m)
[11hPa]

Le Président

 Philippe LEBRETON


  Pour tout renseignement sur les baptêmes; contactez M. LECOURT -> 06.83.16.36.73 <-

  ou posez votre question par mail : -> ICI <-


    A la Une    

Reportage TV

Journée découverte du paramoteur en Sarthe avec LMTV


Alpes Mans'Ailes
Copyright "Alpes Mans'Ailes" 2017, tous droits réservés
Il y a eu 19552 visiteurs sur le site depuis le 08/01/2018